sat.trackr.live / text

‹ back to catalog

STARLINK-4645

NORAD 53743 · 2022-107AV

PAYLOAD ACTIVE UNKNOWN

§ Identity

Operator
Country
US
Launch date
2022-09-05
Launch site
AFETR
Launch vehicle
Mass (kg)
RCS (m²)

Purposes: comms

External: N2YO · Heavens-Above · Gunter

§ Orbital elements

Epoch: 2026-09-20T21:40:55.863840Z

Period
93.85 min
Inclination
53.1595°
Eccentricity
0.0001135
Mean motion
15.34387871 rev/d
Perigee alt
462.0 km
Apogee alt
463.5 km
Semi-major
6,840.9 km
B*
1.7228e-5
RAAN
91.7011°
Arg perigee
91.6088°
Mean anomaly
268.5044°
Rev number
22,428

§ Raw data

STARLINK-46451 53743U 22107AV  26263.90342435  .00000206  00000+0  17228-4 0  99942 53743  53.1595  91.7011 0001135  91.6088 268.5044 15.34387871224287

JSON: /api/v1/satellites/53743 · /tle

For live sub-satellite position, see the globe view (requires WebGL).

§ Visibility from observer

Set your observer location to see the next 7 days of passes ≥ 10°. The values pass through the URL so the page stays shareable.

No JS? Fill the form by hand. The geolocation button needs JavaScript.